• Join FlightAware (Why Join?)
  • Login
  • US Flag 
03:55AM EDT


 

Airport Tracker/Info


-or-


 

Live Flight TrackerFlight Track Log ✈ TAM3244 ✈ 29-Aug-2013 ✈ SBSP / CGH - SBUL / UDI

Flight Track Log - Related Links

Times and Time Zones

All times are in EDT time to prevent confusion due to time zone crossing. See the TAM3244 flight status page for this flight to view local times or setup timezone preferences in your user account.

Time Position Orientation Groundspeed Altitude Reporting Facility
EDT Latitude Longitude Course Direction KTS MPH feet Rate Location/Type
12:35PM -23.6240 -46.6600 180° South  Level FlightAware
12:39PM -23.4065 -46.7339 343° North  Level Estimated
12:39PM -23.6220 -46.6600 343° North  Level FlightAware
12:42PM -23.4132 -46.7323 343° North  Level Estimated
12:43PM -23.3256 -46.7621 343° North  Level Estimated
12:44PM -23.2379 -46.7919 343° North  Level Estimated
12:44PM -23.6210 -46.6610 343° North  Level FlightAware
12:46PM -23.6200 -46.6610 360° North 960 Level FlightAware
12:47PM -23.6450 -46.6440 148° Southeast 158 182 3,100 1,980 Climbing FlightAware
12:48PM -23.6520 -46.6350 130° Southeast 168 193 3,700 2,160 Climbing FlightAware
12:48PM -23.6540 -46.6260 104° East 181 208 4,000 2,280 Climbing FlightAware
12:48PM -23.6390 -46.6060 51° Northeast 202 232 5,000 2,100 Climbing FlightAware
12:48PM -23.6270 -46.5980 31° Northeast 203 234 5,400 1,140 Climbing FlightAware
12:49PM -23.6130 -46.5860 38° Northeast 199 229 5,700 960 Climbing FlightAware
12:49PM -23.6110 -46.5820 61° Northeast 200 230 5,800 1,080 Climbing FlightAware
12:49PM -23.6050 -46.5650 69° East 225 259 6,100 1,320 Climbing FlightAware
12:49PM -23.6000 -46.5410 77° East 264 304 6,600 1,860 Climbing FlightAware
12:50PM -23.5940 -46.5100 78° East 286 329 7,400 3,000 Climbing FlightAware
12:50PM -23.5890 -46.4820 79° East 285 328 8,700 3,360 Climbing FlightAware
12:51PM -23.5780 -46.4320 77° East 300 345 10,500 2,280 Climbing FlightAware
12:51PM -23.5580 -46.4000 56° Northeast 342 394 11,000 1,260 Climbing FlightAware
12:51PM -23.5390 -46.3890 28° Northeast 357 411 11,300 2,580 Climbing FlightAware
12:52PM -23.4880 -46.3930 356° North 357 411 13,000 3,180 Climbing FlightAware
12:52PM -23.4650 -46.4030 338° Northwest 358 412 13,800 2,520 Climbing FlightAware
12:53PM -23.4130 -46.4250 339° North 375 432 15,100 2,400 Climbing FlightAware
12:53PM -23.3500 -46.4470 342° North 388 447 16,700 2,820 Climbing FlightAware
12:54PM -23.2980 -46.4630 344° North 390 449 18,200 2,700 Climbing FlightAware
12:55PM -23.2090 -46.4830 348° North 397 457 20,300 2,460 Climbing FlightAware
12:55PM -23.1550 -46.4920 351° North 404 465 21,500 2,100 Climbing FlightAware
12:56PM -23.0820 -46.5040 351° North 410 472 22,800 2,160 Climbing FlightAware
12:56PM -23.0010 -46.5170 352° North 421 484 24,400 2,220 Climbing FlightAware
12:57PM -22.9290 -46.5300 351° North 423 487 25,700 1,980 Climbing FlightAware
12:58PM -22.8620 -46.5410 351° North 429 494 26,800 1,860 Climbing FlightAware
12:58PM -22.7980 -46.5520 351° North 432 497 27,800 1,800 Climbing FlightAware
12:59PM -22.7240 -46.5640 351° North 436 502 28,900 1,500 Climbing FlightAware
12:59PM -22.6570 -46.5750 351° North 445 512 29,600 1,800 Climbing FlightAware
01:00PM -22.5900 -46.5860 351° North 438 504 30,900 2,700 Climbing FlightAware
01:01PM -22.5120 -46.5990 351° North 416 479 32,900 1,800 Climbing FlightAware
01:01PM -22.4590 -46.6080 351° North 416 479 33,000 60 Climbing FlightAware
01:02PM -22.3860 -46.6200 351° North 407 468 33,000  Level FlightAware
01:02PM -22.3080 -46.6330 351° North 400 460 33,000  Level FlightAware
01:03PM -22.2430 -46.6440 351° North 401 461 33,000  Level FlightAware
01:04PM -22.1800 -46.6540 352° North 399 459 33,000  Level FlightAware
01:04PM -22.1230 -46.6640 351° North 397 457 33,000  Level FlightAware
01:05PM -22.0580 -46.6750 351° North 394 453 33,000  Level FlightAware
01:05PM -21.9990 -46.6840 352° North 394 453 33,000  Level FlightAware
01:06PM -21.9400 -46.6940 351° North 395 455 33,000  Level FlightAware
01:06PM -21.8750 -46.7050 351° North 405 466 33,000  Level FlightAware
01:07PM -21.8050 -46.7160 352° North 409 471 33,000  Level FlightAware
01:08PM -21.7370 -46.7280 351° North 408 470 33,000  Level FlightAware
01:08PM -21.6660 -46.7390 352° North 408 470 33,000  Level FlightAware
01:09PM -21.5990 -46.7500 351° North 408 470 33,000  Level FlightAware
01:09PM -21.5290 -46.7620 351° North 408 470 33,000  Level FlightAware
01:10PM -21.4970 -46.7690 348° North 394 453 33,000  Level FlightAware
01:10PM -21.4370 -46.8010 334° Northwest 385 443 33,000  Level FlightAware
01:11PM -21.4010 -46.8200 334° Northwest 388 447 33,000  Level FlightAware
01:11PM -21.3290 -46.8590 333° Northwest 391 450 33,000  Level FlightAware
01:12PM -21.2790 -46.8860 333° Northwest 393 452 33,000 60 Level FlightAware
01:13PM -21.2130 -46.9210 334° Northwest 394 453 33,100 60 Climbing FlightAware
01:13PM -21.1560 -46.9510 334° Northwest 394 453 33,100 -120 Level FlightAware
01:14PM -21.0990 -46.9820 333° Northwest 393 452 33,000 -120 Descending FlightAware
01:14PM -21.0420 -47.0130 333° Northwest 393 452 33,000  Level FlightAware
01:15PM -20.9850 -47.0430 334° Northwest 393 452 33,000  Level FlightAware
01:16PM -20.9300 -47.0730 333° Northwest 390 449 33,000  Level FlightAware
01:16PM -20.8820 -47.1010 331° Northwest 389 448 33,000  Level FlightAware
01:17PM -20.8180 -47.1380 332° Northwest 390 449 33,000  Level FlightAware
01:17PM -20.7630 -47.1700 331° Northwest 391 450 33,000  Level FlightAware
01:18PM -20.7070 -47.2020 332° Northwest 392 451 33,000  Level FlightAware
01:18PM -20.6570 -47.2300 332° Northwest 393 452 33,000  Level FlightAware
01:19PM -20.5940 -47.2670 331° Northwest 393 452 33,000  Level FlightAware
01:20PM -20.5490 -47.2920 333° Northwest 393 452 33,000  Level FlightAware
01:20PM -20.4830 -47.3300 332° Northwest 391 450 33,000  Level FlightAware
01:21PM -20.4270 -47.3620 332° Northwest 391 450 33,000  Level FlightAware
01:21PM -20.3690 -47.3950 332° Northwest 391 450 33,000  Level FlightAware
01:22PM -20.3060 -47.4310 332° Northwest 391 450 33,000  Level FlightAware
01:23PM -20.2500 -47.4630 332° Northwest 390 449 33,000  Level FlightAware
01:23PM -20.1960 -47.4930 332° Northwest 390 449 33,000  Level FlightAware
01:24PM -20.1450 -47.5220 332° Northwest 390 449 33,000 -360 Level FlightAware
01:24PM -20.0790 -47.5600 332° Northwest 385 443 32,600 -2,160 Descending FlightAware
01:25PM -20.0200 -47.5930 332° Northwest 399 459 30,400 -3,660 Descending FlightAware
01:26PM -19.9730 -47.6200 332° Northwest 414 476 28,600 -2,760 Descending FlightAware
01:26PM -19.9030 -47.6590 332° Northwest 404 465 27,200 -2,220 Descending FlightAware
01:27PM -19.8510 -47.6870 333° Northwest 394 453 26,000 -2,160 Descending FlightAware
01:27PM -19.7930 -47.7190 333° Northwest 384 442 24,800 -2,040 Descending FlightAware
01:28PM -19.7340 -47.7520 332° Northwest 373 429 23,500 -2,520 Descending FlightAware
01:29PM -19.6830 -47.7800 333° Northwest 380 437 21,900 -2,700 Descending FlightAware
01:29PM -19.6270 -47.8100 333° Northwest 381 438 20,500 -2,100 Descending FlightAware
01:30PM -19.5750 -47.8390 332° Northwest 368 423 19,500 -1,920 Descending FlightAware
01:30PM -19.5160 -47.8710 333° Northwest 364 419 18,200 -1,800 Descending FlightAware
01:31PM -19.4700 -47.8970 332° Northwest 352 405 17,400 -1,800 Descending FlightAware
01:31PM -19.4170 -47.9260 333° Northwest 347 399 16,200 -1,920 Descending FlightAware
01:32PM -19.3640 -47.9550 333° Northwest 342 394 15,100 -1,740 Descending FlightAware
01:33PM -19.3170 -47.9810 332° Northwest 333 383 14,200 -1,620 Descending FlightAware
01:33PM -19.2710 -48.0060 333° Northwest 325 374 13,300 -1,800 Descending FlightAware
01:34PM -19.2220 -48.0330 333° Northwest 324 373 12,100 -1,920 Descending FlightAware
01:34PM -19.1790 -48.0560 333° Northwest 321 369 11,100 -1,680 Descending FlightAware
01:35PM -19.1300 -48.0830 332° Northwest 311 358 10,200 -1,260 Descending FlightAware
01:35PM -19.1030 -48.0980 332° Northwest 297 342 9,900 -1,140 Descending FlightAware
01:36PM -19.0840 -48.1080 334° Northwest 292 336 9,500 -1,500 Descending FlightAware
01:36PM -19.0500 -48.1270 332° Northwest 288 331 8,800 -1,440 Descending FlightAware
01:36PM -19.0290 -48.1380 334° Northwest 283 326 8,400 -1,620 Descending FlightAware
01:37PM -19.0050 -48.1510 333° Northwest 285 328 7,800 -1,260 Descending FlightAware
01:37PM -18.9820 -48.1640 332° Northwest 270 311 7,600 -600 Descending FlightAware
01:37PM -18.9570 -48.1770 334° Northwest 253 291 7,400 -540 Descending FlightAware
01:38PM -18.9450 -48.1840 331° Northwest 245 282 7,300 -720 Descending FlightAware
01:38PM -18.9230 -48.1960 333° Northwest 233 268 7,000 -960 Descending FlightAware
01:38PM -18.9030 -48.2070 333° Northwest 227 261 6,600 -960 Descending FlightAware
01:38PM -18.9000 -48.2100 317° Northwest 226 260 6,600 -540 Level FlightAware
01:39PM -18.8940 -48.2180 308° West 224 258 6,500 -1,020 Descending FlightAware
01:39PM -18.8930 -48.2220 285° West 223 257 6,400 -1,020 Descending FlightAware
01:39PM -18.8920 -48.2270 282° West 222 255 6,300 -720 Descending FlightAware
01:40PM -18.9300 -48.2830 234° Southwest 181 208 5,500 -660 Descending FlightAware
01:40PM -18.9410 -48.2960 228° Southwest 174 200 5,300 -480 Descending FlightAware
01:41PM -18.9590 -48.3080 212° Southwest 160 184 5,100 -240 Descending FlightAware
01:41PM -18.9770 -48.3090 183° South 160 184 5,100  Level FlightAware
01:44PM -18.8828 -48.2256 40° Northeast  Level Estimated
01:45PM -18.8828 -48.2256 223° Southwest  Level Estimated
01:46PM -18.8828 -48.2256 223° Southwest  Level Estimated
01:47PM -18.8828 -48.2256 223° Southwest  Level Estimated
01:48PM -18.8828 -48.2256 223° Southwest  Level Estimated
01:49PM -18.8828 -48.2256 223° Southwest  Level Estimated
01:50PM -18.8828 -48.2256 223° Southwest  Level Estimated
01:51PM -18.8828 -48.2256 223° Southwest  Level Estimated
01:52PM -18.8828 -48.2256 223° Southwest  Level Estimated
01:53PM -18.8828 -48.2256 223° Southwest  Level Estimated
01:54PM -18.8828 -48.2256 223° Southwest  Level Estimated